When you browse on this site, cookies collect data to enhance your experience and personalize the content and advertising you see.
Visit our Privacy Policy to learn more. By continuing to use the site, you agree to this use of cookies and data.
  • In Switzerland
  • List of Countries
  • For 7 days
  • Water Temperature
  • Weather Map
  • Weather Widgets
  • user-avatar
    Login

    Hourly Weather Seattle

    Today, 8 December, Sunday

    Time Temperature Precipitation Wind Pressure Humidity
    00:00 -5°C° 0 mm 2 mps 639 mmHg 94%
    01:00 -5°C° 0 mm 2 mps 639 mmHg 94%
    02:00 -3°C° 0 mm 1 mps 638 mmHg 95%
    03:00 -6°C° 0.1 mm 2 mps 638 mmHg 94%
    04:00 -7°C° 0.1 mm 3 mps 638 mmHg 93%
    05:00 -9°C° 0 mm 4 mps 638 mmHg 90%
    06:00 -10°C° 0.3 mm 4 mps 639 mmHg 91%
    07:00 -11°C° 0.3 mm 4 mps 639 mmHg 91%
    08:00 -12°C° 0.3 mm 4 mps 639 mmHg 92%
    09:00 -12°C° 0.5 mm 4 mps 640 mmHg 91%
    10:00 -13°C° 0.5 mm 5 mps 641 mmHg 91%
    11:00 -14°C° 0.5 mm 5 mps 642 mmHg 90%
    12:00 -14°C° 0.3 mm 4 mps 642 mmHg 88%
    13:00 -12°C° 0.3 mm 3 mps 642 mmHg 86%
    14:00 -12°C° 0.3 mm 3 mps 643 mmHg 84%
    15:00 -12°C° 0 mm 2 mps 643 mmHg 85%
    16:00 -13°C° 0 mm 2 mps 644 mmHg 86%
    17:00 -11°C° 0 mm 1 mps 644 mmHg 87%
    18:00 -13°C° 0 mm 2 mps 644 mmHg 86%
    19:00 -13°C° 0 mm 2 mps 644 mmHg 84%
    20:00 -13°C° 0 mm 3 mps 644 mmHg 83%
    21:00 -12°C° 0 mm 3 mps 645 mmHg 82%
    22:00 -12°C° 0 mm 3 mps 645 mmHg 81%
    23:00 -10°C° 0 mm 3 mps 646 mmHg 80%

    Tomorrow, 9 December, Monday

    Time Temperature Precipitation Wind Pressure Humidity
    00:00 -9°C° 0 mm 3 mps 646 mmHg 80%
    01:00 -9°C° 0 mm 3 mps 646 mmHg 80%
    02:00 -8°C° 0 mm 3 mps 646 mmHg 80%
    03:00 -9°C° 0 mm 4 mps 646 mmHg 80%
    04:00 -10°C° 0 mm 4 mps 646 mmHg 80%
    05:00 -10°C° 0 mm 4 mps 646 mmHg 80%
    06:00 -10°C° 0 mm 4 mps 646 mmHg 80%
    07:00 -10°C° 0 mm 3 mps 646 mmHg 80%
    08:00 -10°C° 0 mm 3 mps 646 mmHg 80%
    09:00 -8°C° 0 mm 3 mps 646 mmHg 79%
    10:00 -7°C° 0 mm 3 mps 647 mmHg 77%
    11:00 -6°C° 0 mm 3 mps 647 mmHg 76%
    12:00 -5°C° 0 mm 3 mps 647 mmHg 77%
    13:00 -3°C° 0 mm 2 mps 646 mmHg 78%
    14:00 -1°C° 0 mm 1 mps 646 mmHg 78%
    15:00 -2°C° 0 mm 1 mps 646 mmHg 80%
    16:00 -3°C° 0 mm 1 mps 646 mmHg 81%
    17:00 -4°C° 0 mm 1 mps 646 mmHg 82%
    18:00 -6°C° 0 mm 1 mps 646 mmHg 84%
    19:00 -6°C° 0 mm 1 mps 646 mmHg 86%
    20:00 -7°C° 0 mm 1 mps 646 mmHg 87%
    21:00 -7°C° 0 mm 1 mps 646 mmHg 87%
    22:00 -7°C° 0 mm 1 mps 646 mmHg 88%
    23:00 -8°C° 0 mm 1 mps 646 mmHg 88%

    Day after tomorrow, 10 December, Tuesday

    Time Temperature Precipitation Wind Pressure Humidity
    00:00 -8°C° 0 mm 1 mps 646 mmHg 88%
    01:00 -7°C° 0 mm 1 mps 646 mmHg 88%
    02:00 -8°C° 0 mm 2 mps 645 mmHg 88%
    03:00 -8°C° 0 mm 2 mps 646 mmHg 87%
    04:00 -8°C° 0 mm 2 mps 646 mmHg 86%
    05:00 -7°C° 0 mm 2 mps 646 mmHg 85%
    06:00 -7°C° 0 mm 2 mps 646 mmHg 84%
    07:00 -7°C° 0 mm 2 mps 646 mmHg 84%
    08:00 -7°C° 0 mm 3 mps 646 mmHg 83%
    09:00 -6°C° 0 mm 3 mps 646 mmHg 82%
    10:00 -5°C° 0 mm 3 mps 646 mmHg 81%
    11:00 -4°C° 0 mm 3 mps 646 mmHg 81%
    12:00 -2°C° 0 mm 3 mps 646 mmHg 80%
    13:00 -1°C° 0 mm 3 mps 646 mmHg 79%
    14:00 0°C° 0 mm 3 mps 646 mmHg 78%
    15:00 -2°C° 0 mm 4 mps 646 mmHg 78%
    16:00 -3°C° 0 mm 4 mps 645 mmHg 78%
    17:00 -3°C° 0 mm 4 mps 645 mmHg 77%
    18:00 -4°C° 0 mm 4 mps 645 mmHg 77%
    19:00 -4°C° 0 mm 4 mps 645 mmHg 77%
    20:00 -4°C° 0 mm 3 mps 645 mmHg 77%
    21:00 -4°C° 0 mm 3 mps 645 mmHg 77%
    22:00 -4°C° 0 mm 3 mps 645 mmHg 77%
    23:00 -4°C° 0 mm 3 mps 645 mmHg 77%

    11 December, Wednesday

    Time Temperature Precipitation Wind Pressure Humidity
    00:00 -4°C° 0 mm 3 mps 645 mmHg 75%
    01:00 -4°C° 0 mm 3 mps 645 mmHg 74%
    02:00 -4°C° 0 mm 3 mps 644 mmHg 73%
    03:00 -5°C° 0 mm 3 mps 644 mmHg 73%
    04:00 -5°C° 0 mm 3 mps 644 mmHg 73%
    05:00 -5°C° 0 mm 4 mps 644 mmHg 73%
    06:00 -5°C° 0 mm 4 mps 644 mmHg 73%
    07:00 -4°C° 0 mm 4 mps 644 mmHg 73%
    08:00 -4°C° 0 mm 4 mps 644 mmHg 73%
    09:00 -4°C° 0 mm 5 mps 645 mmHg 73%
    10:00 -2°C° 0 mm 5 mps 645 mmHg 73%
    11:00 -1°C° 0 mm 5 mps 646 mmHg 73%
    12:00 0°C° 0 mm 5 mps 646 mmHg 73%
    13:00 0°C° 0 mm 4 mps 646 mmHg 73%
    14:00 0°C° 0 mm 4 mps 646 mmHg 73%
    15:00 -1°C° 0 mm 4 mps 646 mmHg 74%
    16:00 -1°C° 0 mm 3 mps 646 mmHg 75%
    17:00 -2°C° 0 mm 3 mps 647 mmHg 77%
    18:00 -4°C° 0 mm 3 mps 647 mmHg 78%
    19:00 -4°C° 0 mm 3 mps 647 mmHg 80%
    20:00 -5°C° 0 mm 3 mps 647 mmHg 81%
    21:00 -5°C° 0 mm 3 mps 647 mmHg 81%
    22:00 -5°C° 0 mm 3 mps 647 mmHg 81%
    23:00 -5°C° 0 mm 4 mps 647 mmHg 81%

    12 December, Thursday

    Time Temperature Precipitation Wind Pressure Humidity
    00:00 -5°C° 0 mm 4 mps 647 mmHg 80%
    01:00 -5°C° 0 mm 4 mps 647 mmHg 79%
    02:00 -4°C° 0 mm 4 mps 647 mmHg 78%
    03:00 -5°C° 0 mm 4 mps 646 mmHg 78%
    04:00 -5°C° 0 mm 4 mps 646 mmHg 78%
    05:00 -5°C° 0 mm 4 mps 646 mmHg 78%
    06:00 -6°C° 0 mm 5 mps 645 mmHg 77%
    07:00 -6°C° 0 mm 5 mps 645 mmHg 77%
    08:00 -6°C° 0 mm 5 mps 645 mmHg 76%
    09:00 -5°C° 0 mm 5 mps 645 mmHg 74%
    10:00 -4°C° 0 mm 6 mps 645 mmHg 73%
    11:00 -3°C° 0 mm 6 mps 645 mmHg 71%
    12:00 -2°C° 0 mm 6 mps 644 mmHg 72%
    13:00 -1°C° 0 mm 6 mps 644 mmHg 72%
    14:00 -1°C° 0 mm 6 mps 644 mmHg 72%
    15:00 0°C° 0 mm 5 mps 644 mmHg 72%
    16:00 -1°C° 0 mm 5 mps 643 mmHg 72%
    17:00 -2°C° 0 mm 5 mps 643 mmHg 72%
    18:00 -2°C° 0 mm 5 mps 643 mmHg 72%
    19:00 -2°C° 0 mm 5 mps 643 mmHg 72%
    20:00 -2°C° 0 mm 5 mps 644 mmHg 73%
    21:00 -4°C° 0 mm 5 mps 644 mmHg 74%
    22:00 -4°C° 0 mm 5 mps 644 mmHg 75%
    23:00 -4°C° 0 mm 5 mps 644 mmHg 77%

    13 December, Friday

    Time Temperature Precipitation Wind Pressure Humidity
    00:00 -4°C° 0 mm 6 mps 644 mmHg 75%
    01:00 -4°C° 0 mm 7 mps 644 mmHg 74%
    02:00 -5°C° 0 mm 8 mps 645 mmHg 73%
    03:00 -5°C° 0 mm 8 mps 645 mmHg 71%
    04:00 -4°C° 0 mm 9 mps 645 mmHg 70%
    05:00 -4°C° 0 mm 9 mps 646 mmHg 69%
    06:00 -5°C° 0 mm 9 mps 646 mmHg 69%
    07:00 -5°C° 0 mm 8 mps 646 mmHg 69%
    08:00 -5°C° 0 mm 8 mps 647 mmHg 69%
    09:00 -4°C° 0 mm 7 mps 647 mmHg 69%
    10:00 -3°C° 0 mm 6 mps 647 mmHg 69%
    11:00 -2°C° 0 mm 5 mps 648 mmHg 69%
    12:00 -2°C° 0 mm 4 mps 647 mmHg 70%
    13:00 -1°C° 0 mm 3 mps 647 mmHg 70%
    14:00 0°C° 0 mm 3 mps 647 mmHg 71%
    15:00 -1°C° 0 mm 3 mps 646 mmHg 73%
    16:00 -2°C° 0 mm 3 mps 646 mmHg 74%
    17:00 -4°C° 0 mm 3 mps 646 mmHg 76%
    18:00 -4°C° 0 mm 3 mps 645 mmHg 77%
    19:00 -5°C° 0 mm 3 mps 645 mmHg 78%
    20:00 -5°C° 0 mm 3 mps 644 mmHg 79%
    21:00 -4°C° 0 mm 2 mps 644 mmHg 79%
    22:00 -4°C° 0 mm 2 mps 644 mmHg 79%
    23:00 -4°C° 0 mm 2 mps 643 mmHg 80%
    Show more